TimeAKST,TemperatureF,Dew PointF,Humidity,Sea Level PressureIn,VisibilityMPH,Wind Direction,Wind SpeedMPH,Gust SpeedMPH,PrecipitationIn,Events,Conditions,WindDirDegrees,DateUTC
12:53 AM,-7.1,-11.0,83,29.65,10.0,Calm,Calm,-,N/A,,Clear,0,2012-02-19 09:53:00
1:53 AM,-7.1,-11.0,83,29.66,10.0,Calm,Calm,-,N/A,,Clear,0,2012-02-19 10:53:00
3:53 AM,-11.0,-15.0,83,29.66,10.0,Calm,Calm,-,N/A,,Clear,0,2012-02-19 12:53:00
4:53 AM,-9.9,-14.1,82,29.66,10.0,Calm,Calm,-,N/A,,Clear,0,2012-02-19 13:53:00
5:53 AM,-13.0,-17.0,82,29.66,10.0,NNE,3.5,-,N/A,,Clear,30,2012-02-19 14:53:00
6:53 AM,-11.9,-17.0,78,29.66,10.0,Calm,Calm,-,N/A,,Clear,0,2012-02-19 15:53:00
7:53 AM,-13.0,-18.0,78,29.67,10.0,Calm,Calm,-,N/A,,Scattered Clouds,0,2012-02-19 16:53:00
8:53 AM,-11.9,-16.1,82,29.68,10.0,Calm,Calm,-,N/A,,Scattered Clouds,0,2012-02-19 17:53:00
9:53 AM,-9.9,-14.1,82,29.68,10.0,Calm,Calm,-,N/A,,Mostly Cloudy,0,2012-02-19 18:53:00
10:53 AM,-8.0,-11.9,83,29.68,10.0,Calm,Calm,-,N/A,,Mostly Cloudy,0,2012-02-19 19:53:00
11:53 AM,-0.0,-4.0,83,29.67,10.0,Calm,Calm,-,N/A,,Mostly Cloudy,0,2012-02-19 20:53:00
12:53 PM,3.0,-0.9,84,29.66,10.0,Calm,Calm,-,N/A,,Mostly Cloudy,0,2012-02-19 21:53:00
1:53 PM,6.1,1.9,83,29.64,10.0,Calm,Calm,-,N/A,,Scattered Clouds,0,2012-02-19 22:53:00
2:53 PM,9.0,5.0,84,29.62,10.0,Calm,Calm,-,N/A,,Scattered Clouds,0,2012-02-19 23:53:00
3:53 PM,8.1,3.9,83,29.61,10.0,Calm,Calm,-,N/A,,Mostly Cloudy,0,2012-02-20 00:53:00
4:53 PM,7.0,3.9,87,29.60,10.0,Calm,Calm,-,N/A,,Mostly Cloudy,0,2012-02-20 01:53:00
5:53 PM,1.0,-0.9,91,29.59,10.0,Calm,Calm,-,N/A,,Mostly Cloudy,0,2012-02-20 02:53:00
6:53 PM,-0.9,-4.0,87,29.58,10.0,Calm,Calm,-,N/A,,Mostly Cloudy,0,2012-02-20 03:53:00
7:53 PM,-4.0,-7.1,87,29.57,10.0,Calm,Calm,-,N/A,,Scattered Clouds,0,2012-02-20 04:53:00
8:53 PM,-8.0,-11.9,83,29.55,10.0,Calm,Calm,-,N/A,,Scattered Clouds,0,2012-02-20 05:53:00
9:53 PM,-9.0,-11.0,91,29.52,10.0,NNE,3.5,-,N/A,,Mostly Cloudy,20,2012-02-20 06:53:00
10:53 PM,-4.0,-7.1,87,29.49,10.0,Calm,Calm,-,N/A,,Scattered Clouds,0,2012-02-20 07:53:00
11:53 PM,-8.0,-11.9,83,29.47,10.0,Calm,Calm,-,N/A,,Scattered Clouds,0,2012-02-20 08:53:00